Year,Month,Day,Hour,Minute,Value (Times are PST for insolation in W/m^2)
2024,02,23,00,00,0.00
2024,02,23,00,01,0.00
2024,02,23,00,02,0.00
2024,02,23,00,03,0.00
2024,02,23,00,04,0.00
2024,02,23,00,05,0.00
2024,02,23,00,06,0.00
2024,02,23,00,07,0.00
2024,02,23,00,08,0.00
2024,02,23,00,09,0.00
2024,02,23,00,10,0.00
2024,02,23,00,11,0.00
2024,02,23,00,12,0.00
2024,02,23,00,13,0.00
2024,02,23,00,14,0.00
2024,02,23,00,15,0.00
2024,02,23,00,16,0.00
2024,02,23,00,17,0.00
2024,02,23,00,18,0.00
2024,02,23,00,19,0.00
2024,02,23,00,20,0.00
2024,02,23,00,21,0.00
2024,02,23,00,22,0.00
2024,02,23,00,23,0.00
2024,02,23,00,24,0.00
2024,02,23,00,25,0.00
2024,02,23,00,26,0.00
2024,02,23,00,27,0.00
2024,02,23,00,28,0.00
2024,02,23,00,29,0.00
2024,02,23,00,30,0.00
2024,02,23,00,31,0.00
2024,02,23,00,32,0.00
2024,02,23,00,33,0.00
2024,02,23,00,34,0.00
2024,02,23,00,35,0.00
2024,02,23,00,36,0.00
2024,02,23,00,37,0.00
2024,02,23,00,38,0.00
2024,02,23,00,39,0.00
2024,02,23,00,40,0.00
2024,02,23,00,41,0.00
2024,02,23,00,42,0.00
2024,02,23,00,43,0.00
2024,02,23,00,44,0.00
2024,02,23,00,45,0.00
2024,02,23,00,46,0.00
2024,02,23,00,47,0.00
2024,02,23,00,48,0.00
2024,02,23,00,49,0.00
2024,02,23,00,50,0.00
2024,02,23,00,51,0.00
2024,02,23,00,52,0.00
2024,02,23,00,53,0.00
2024,02,23,00,54,0.00
2024,02,23,00,55,0.00
2024,02,23,00,56,0.00
2024,02,23,00,57,0.00
2024,02,23,00,58,0.00
2024,02,23,00,59,0.00
2024,02,23,01,00,0.00
2024,02,23,01,01,0.00
2024,02,23,01,02,0.00
2024,02,23,01,03,0.00
2024,02,23,01,04,0.00
2024,02,23,01,05,0.00
2024,02,23,01,06,0.00
2024,02,23,01,07,0.00
2024,02,23,01,08,0.00
2024,02,23,01,09,0.00
2024,02,23,01,10,0.00
2024,02,23,01,11,0.00
2024,02,23,01,12,0.00
2024,02,23,01,13,0.00
2024,02,23,01,14,0.00
2024,02,23,01,15,0.00
2024,02,23,01,16,0.00
2024,02,23,01,17,0.00
2024,02,23,01,18,0.00
2024,02,23,01,19,0.00
2024,02,23,01,20,0.00
2024,02,23,01,21,0.00
2024,02,23,01,22,0.00
2024,02,23,01,23,0.00
2024,02,23,01,24,0.00
2024,02,23,01,25,0.00
2024,02,23,01,26,0.00
2024,02,23,01,27,0.00
2024,02,23,01,28,0.00
2024,02,23,01,29,0.00
2024,02,23,01,30,0.00
2024,02,23,01,31,0.00
2024,02,23,01,32,0.00
2024,02,23,01,33,0.00
2024,02,23,01,34,0.00
2024,02,23,01,35,0.00
2024,02,23,01,36,0.00
2024,02,23,01,37,0.00
2024,02,23,01,38,0.00
2024,02,23,01,39,0.00
2024,02,23,01,40,0.00
2024,02,23,01,41,0.00
2024,02,23,01,42,0.00
2024,02,23,01,43,0.00
2024,02,23,01,44,0.00
2024,02,23,01,45,0.00
2024,02,23,01,46,0.00
2024,02,23,01,47,0.00
2024,02,23,01,48,0.00
2024,02,23,01,49,0.00
2024,02,23,01,50,0.00
2024,02,23,01,51,0.00
2024,02,23,01,52,0.00
2024,02,23,01,53,0.00
2024,02,23,01,54,0.00
2024,02,23,01,55,0.00
2024,02,23,01,56,0.00
2024,02,23,01,57,0.00
2024,02,23,01,58,0.00
2024,02,23,01,59,0.00
2024,02,23,02,00,0.00
2024,02,23,02,01,0.00
2024,02,23,02,02,0.00
2024,02,23,02,03,0.00
2024,02,23,02,04,0.00
2024,02,23,02,05,0.00
2024,02,23,02,06,0.00
2024,02,23,02,07,0.00
2024,02,23,02,08,0.00
2024,02,23,02,09,0.00
2024,02,23,02,10,0.00
2024,02,23,02,11,0.00
2024,02,23,02,12,0.00
2024,02,23,02,13,0.00
2024,02,23,02,14,0.00
2024,02,23,02,15,0.00
2024,02,23,02,16,0.00
2024,02,23,02,17,0.00
2024,02,23,02,18,0.00
2024,02,23,02,19,0.00
2024,02,23,02,20,0.00
2024,02,23,02,21,0.00
2024,02,23,02,22,0.00
2024,02,23,02,23,0.00
2024,02,23,02,24,0.00
2024,02,23,02,25,0.00
2024,02,23,02,26,0.00
2024,02,23,02,27,0.00
2024,02,23,02,28,0.00
2024,02,23,02,29,0.00
2024,02,23,02,30,0.00
2024,02,23,02,31,0.00
2024,02,23,02,32,0.00
2024,02,23,02,33,0.00
2024,02,23,02,34,0.00
2024,02,23,02,35,0.00
2024,02,23,02,36,0.00
2024,02,23,02,37,0.00
2024,02,23,02,38,0.00
2024,02,23,02,39,0.00
2024,02,23,02,40,0.00
2024,02,23,02,41,0.00
2024,02,23,02,42,0.00
2024,02,23,02,43,0.00
2024,02,23,02,44,0.00
2024,02,23,02,45,0.00
2024,02,23,02,46,0.00
2024,02,23,02,47,0.00
2024,02,23,02,48,0.00
2024,02,23,02,49,0.00
2024,02,23,02,50,0.00
2024,02,23,02,51,0.00
2024,02,23,02,52,0.00
2024,02,23,02,53,0.00
2024,02,23,02,54,0.00
2024,02,23,02,55,0.00
2024,02,23,02,56,0.00
2024,02,23,02,57,0.00
2024,02,23,02,58,0.00
2024,02,23,02,59,0.00
2024,02,23,03,00,0.00
2024,02,23,03,01,0.00
2024,02,23,03,02,0.00
2024,02,23,03,03,0.00
2024,02,23,03,04,0.00
2024,02,23,03,05,0.00
2024,02,23,03,06,0.00
2024,02,23,03,07,0.00
2024,02,23,03,08,0.00
2024,02,23,03,09,0.00
2024,02,23,03,10,0.00
2024,02,23,03,11,0.00
2024,02,23,03,12,0.00
2024,02,23,03,13,0.00
2024,02,23,03,14,0.00
2024,02,23,03,15,0.00
2024,02,23,03,16,0.00
2024,02,23,03,17,0.00
2024,02,23,03,18,0.00
2024,02,23,03,19,0.00
2024,02,23,03,20,0.00
2024,02,23,03,21,0.00
2024,02,23,03,22,0.00
2024,02,23,03,23,0.00
2024,02,23,03,24,0.00
2024,02,23,03,25,0.00
2024,02,23,03,26,0.00
2024,02,23,03,27,0.00
2024,02,23,03,28,0.00
2024,02,23,03,29,0.00
2024,02,23,03,30,0.00
2024,02,23,03,31,0.00
2024,02,23,03,32,0.00
2024,02,23,03,33,0.00
2024,02,23,03,34,0.00
2024,02,23,03,35,0.00
2024,02,23,03,36,0.00
2024,02,23,03,37,0.00
2024,02,23,03,38,0.00
2024,02,23,03,39,0.00
2024,02,23,03,40,0.00
2024,02,23,03,41,0.00
2024,02,23,03,42,0.00
2024,02,23,03,43,0.00
2024,02,23,03,44,0.00
2024,02,23,03,45,0.00
2024,02,23,03,46,0.00
2024,02,23,03,47,0.00
2024,02,23,03,48,0.00
2024,02,23,03,49,0.00
2024,02,23,03,50,0.00
2024,02,23,03,51,0.00
2024,02,23,03,52,0.00
2024,02,23,03,53,0.00
2024,02,23,03,54,0.00
2024,02,23,03,55,0.00
2024,02,23,03,56,0.00
2024,02,23,03,57,0.00
2024,02,23,03,58,0.00
2024,02,23,03,59,0.00
2024,02,23,04,00,0.00
2024,02,23,04,01,0.00
2024,02,23,04,02,0.00
2024,02,23,04,03,0.00
2024,02,23,04,04,0.00
2024,02,23,04,05,0.00
2024,02,23,04,06,0.00
2024,02,23,04,07,0.00
2024,02,23,04,08,0.00
2024,02,23,04,09,0.00
2024,02,23,04,10,0.00
2024,02,23,04,11,0.00
2024,02,23,04,12,0.00
2024,02,23,04,13,0.00
2024,02,23,04,14,0.00
2024,02,23,04,15,0.00
2024,02,23,04,16,0.00
2024,02,23,04,17,0.00
2024,02,23,04,18,0.00
2024,02,23,04,19,0.00
2024,02,23,04,20,0.00
2024,02,23,04,21,0.00
2024,02,23,04,22,0.00
2024,02,23,04,23,0.00
2024,02,23,04,24,0.00
2024,02,23,04,25,0.00
2024,02,23,04,26,0.00
2024,02,23,04,27,0.00
2024,02,23,04,28,0.00
2024,02,23,04,29,0.00
2024,02,23,04,30,0.00
2024,02,23,04,31,0.00
2024,02,23,04,32,0.00
2024,02,23,04,33,0.00
2024,02,23,04,34,0.00
2024,02,23,04,35,0.00
2024,02,23,04,36,0.00
2024,02,23,04,37,0.00
2024,02,23,04,38,0.00
2024,02,23,04,39,0.00
2024,02,23,04,40,0.00
2024,02,23,04,41,0.00
2024,02,23,04,42,0.00
2024,02,23,04,43,0.00
2024,02,23,04,44,0.00
2024,02,23,04,45,0.00
2024,02,23,04,46,0.00
2024,02,23,04,47,0.00
2024,02,23,04,48,0.00
2024,02,23,04,49,0.00
2024,02,23,04,50,0.00
2024,02,23,04,51,0.00
2024,02,23,04,52,0.00
2024,02,23,04,53,0.00
2024,02,23,04,54,0.00
2024,02,23,04,55,0.00
2024,02,23,04,56,0.00
2024,02,23,04,57,0.00
2024,02,23,04,58,0.00
2024,02,23,04,59,0.00
2024,02,23,05,00,0.00
2024,02,23,05,01,0.00
2024,02,23,05,02,0.00
2024,02,23,05,03,0.00
2024,02,23,05,04,0.00
2024,02,23,05,05,0.00
2024,02,23,05,06,0.00
2024,02,23,05,07,0.00
2024,02,23,05,08,0.00
2024,02,23,05,09,0.00
2024,02,23,05,10,0.00
2024,02,23,05,11,0.00
2024,02,23,05,12,0.00
2024,02,23,05,13,0.00
2024,02,23,05,14,0.00
2024,02,23,05,15,0.00
2024,02,23,05,16,0.00
2024,02,23,05,17,0.00
2024,02,23,05,18,0.00
2024,02,23,05,19,0.00
2024,02,23,05,20,0.00
2024,02,23,05,21,0.00
2024,02,23,05,22,0.00
2024,02,23,05,23,0.00
2024,02,23,05,24,0.00
2024,02,23,05,25,0.00
2024,02,23,05,26,0.00
2024,02,23,05,27,0.00
2024,02,23,05,28,0.00
2024,02,23,05,29,0.00
2024,02,23,05,30,0.00
2024,02,23,05,31,0.00
2024,02,23,05,32,0.00
2024,02,23,05,33,0.00
2024,02,23,05,34,0.00
2024,02,23,05,35,0.00
2024,02,23,05,36,0.00
2024,02,23,05,37,0.00
2024,02,23,05,38,0.00
2024,02,23,05,39,0.00
2024,02,23,05,40,0.00
2024,02,23,05,41,0.00
2024,02,23,05,42,0.00
2024,02,23,05,43,0.00
2024,02,23,05,44,0.00
2024,02,23,05,45,0.00
2024,02,23,05,46,0.00
2024,02,23,05,47,0.00
2024,02,23,05,48,0.00
2024,02,23,05,49,0.00
2024,02,23,05,50,0.00
2024,02,23,05,51,0.00
2024,02,23,05,52,0.00
2024,02,23,05,53,0.00
2024,02,23,05,54,0.00
2024,02,23,05,55,0.00
2024,02,23,05,56,0.00
2024,02,23,05,57,0.00
2024,02,23,05,58,0.00
2024,02,23,05,59,0.00
2024,02,23,06,00,0.00
2024,02,23,06,01,0.00
2024,02,23,06,02,0.00
2024,02,23,06,03,0.00
2024,02,23,06,04,0.00
2024,02,23,06,05,0.00
2024,02,23,06,06,0.00
2024,02,23,06,07,0.00
2024,02,23,06,08,0.00
2024,02,23,06,09,0.00
2024,02,23,06,10,0.00
2024,02,23,06,11,0.00
2024,02,23,06,12,0.00
2024,02,23,06,13,0.00
2024,02,23,06,14,0.00
2024,02,23,06,15,0.00
2024,02,23,06,16,0.00
2024,02,23,06,17,0.00
2024,02,23,06,18,0.00
2024,02,23,06,19,0.00
2024,02,23,06,20,0.00
2024,02,23,06,21,0.00
2024,02,23,06,22,0.00
2024,02,23,06,23,0.00
2024,02,23,06,24,0.00
2024,02,23,06,25,0.00
2024,02,23,06,26,0.00
2024,02,23,06,27,0.00
2024,02,23,06,28,0.00
2024,02,23,06,29,0.00
2024,02,23,06,30,0.00
2024,02,23,06,31,0.00
2024,02,23,06,32,0.00
2024,02,23,06,33,0.00
2024,02,23,06,34,0.00
2024,02,23,06,35,0.00
2024,02,23,06,36,0.00
2024,02,23,06,37,0.00
2024,02,23,06,38,0.00
2024,02,23,06,39,0.00
2024,02,23,06,40,0.00
2024,02,23,06,41,0.00
2024,02,23,06,42,0.00
2024,02,23,06,43,0.00
2024,02,23,06,44,0.00
2024,02,23,06,45,0.00
2024,02,23,06,46,0.00
2024,02,23,06,47,0.00
2024,02,23,06,48,0.00
2024,02,23,06,49,0.00
2024,02,23,06,50,0.00
2024,02,23,06,51,0.00
2024,02,23,06,52,0.00
2024,02,23,06,53,0.00
2024,02,23,06,54,0.00
2024,02,23,06,55,0.00
2024,02,23,06,56,0.00
2024,02,23,06,57,0.00
2024,02,23,06,58,0.00
2024,02,23,06,59,0.00
2024,02,23,07,00,0.00
2024,02,23,07,01,0.00
2024,02,23,07,02,3.40
2024,02,23,07,03,5.00
2024,02,23,07,04,5.10
2024,02,23,07,05,7.00
2024,02,23,07,06,7.00
2024,02,23,07,07,7.80
2024,02,23,07,08,9.00
2024,02,23,07,09,10.40
2024,02,23,07,10,11.80
2024,02,23,07,11,12.10
2024,02,23,07,12,14.30
2024,02,23,07,13,16.60
2024,02,23,07,14,18.40
2024,02,23,07,15,20.10
2024,02,23,07,16,22.40
2024,02,23,07,17,24.60
2024,02,23,07,18,26.10
2024,02,23,07,19,28.40
2024,02,23,07,20,30.90
2024,02,23,07,21,34.70
2024,02,23,07,22,39.80
2024,02,23,07,23,44.70
2024,02,23,07,24,46.00
2024,02,23,07,25,46.90
2024,02,23,07,26,47.00
2024,02,23,07,27,47.00
2024,02,23,07,28,47.00
2024,02,23,07,29,47.00
2024,02,23,07,30,47.00
2024,02,23,07,31,47.00
2024,02,23,07,32,47.10
2024,02,23,07,33,49.00
2024,02,23,07,34,49.00
2024,02,23,07,35,49.00
2024,02,23,07,36,49.00
2024,02,23,07,37,49.00
2024,02,23,07,38,49.00
2024,02,23,07,39,49.00
2024,02,23,07,40,49.30
2024,02,23,07,41,51.00
2024,02,23,07,42,51.90
2024,02,23,07,43,53.00
2024,02,23,07,44,53.00
2024,02,23,07,45,53.00
2024,02,23,07,46,53.90
2024,02,23,07,47,54.30
2024,02,23,07,48,56.60
2024,02,23,07,49,58.00
2024,02,23,07,50,59.10
2024,02,23,07,51,60.00
2024,02,23,07,52,60.00
2024,02,23,07,53,60.00
2024,02,23,07,54,60.00
2024,02,23,07,55,60.60
2024,02,23,07,56,62.00
2024,02,23,07,57,60.90
2024,02,23,07,58,60.00
2024,02,23,07,59,60.00
2024,02,23,08,00,60.00
2024,02,23,08,01,59.70
2024,02,23,08,02,58.00
2024,02,23,08,03,58.00
2024,02,23,08,04,56.90
2024,02,23,08,05,56.00
2024,02,23,08,06,57.60
2024,02,23,08,07,59.80
2024,02,23,08,08,60.30
2024,02,23,08,09,62.30
2024,02,23,08,10,63.00
2024,02,23,08,11,63.00
2024,02,23,08,12,63.00
2024,02,23,08,13,64.60
2024,02,23,08,14,66.90
2024,02,23,08,15,67.00
2024,02,23,08,16,67.00
2024,02,23,08,17,67.00
2024,02,23,08,18,67.00
2024,02,23,08,19,67.00
2024,02,23,08,20,67.00
2024,02,23,08,21,68.90
2024,02,23,08,22,69.00
2024,02,23,08,23,68.40
2024,02,23,08,24,67.00
2024,02,23,08,25,68.10
2024,02,23,08,26,69.00
2024,02,23,08,27,69.00
2024,02,23,08,28,69.90
2024,02,23,08,29,70.00
2024,02,23,08,30,70.60
2024,02,23,08,31,73.70
2024,02,23,08,32,78.80
2024,02,23,08,33,82.40
2024,02,23,08,34,83.80
2024,02,23,08,35,84.10
2024,02,23,08,36,85.70
2024,02,23,08,37,84.00
2024,02,23,08,38,84.00
2024,02,23,08,39,85.10
2024,02,23,08,40,88.60
2024,02,23,08,41,90.80
2024,02,23,08,42,94.70
2024,02,23,08,43,98.00
2024,02,23,08,44,97.70
2024,02,23,08,45,96.20
2024,02,23,08,46,93.90
2024,02,23,08,47,93.00
2024,02,23,08,48,94.60
2024,02,23,08,49,94.90
2024,02,23,08,50,93.00
2024,02,23,08,51,92.40
2024,02,23,08,52,91.00
2024,02,23,08,53,91.00
2024,02,23,08,54,92.30
2024,02,23,08,55,93.00
2024,02,23,08,56,93.00
2024,02,23,08,57,93.00
2024,02,23,08,58,93.60
2024,02,23,08,59,95.00
2024,02,23,09,00,95.00
2024,02,23,09,01,97.00
2024,02,23,09,02,99.60
2024,02,23,09,03,101.70
2024,02,23,09,04,97.50
2024,02,23,09,05,95.60
2024,02,23,09,06,97.40
2024,02,23,09,07,100.10
2024,02,23,09,08,104.00
2024,02,23,09,09,105.00
2024,02,23,09,10,104.90
2024,02,23,09,11,103.70
2024,02,23,09,12,101.40
2024,02,23,09,13,100.00
2024,02,23,09,14,100.00
2024,02,23,09,15,100.00
2024,02,23,09,16,98.40
2024,02,23,09,17,98.00
2024,02,23,09,18,98.30
2024,02,23,09,19,100.60
2024,02,23,09,20,102.80
2024,02,23,09,21,104.60
2024,02,23,09,22,106.40
2024,02,23,09,23,105.40
2024,02,23,09,24,104.10
2024,02,23,09,25,104.20
2024,02,23,09,26,105.60
2024,02,23,09,27,106.20
2024,02,23,09,28,104.40
2024,02,23,09,29,101.40
2024,02,23,09,30,100.00
2024,02,23,09,31,100.10
2024,02,23,09,32,104.50
2024,02,23,09,33,107.00
2024,02,23,09,34,106.20
2024,02,23,09,35,105.00
2024,02,23,09,36,104.30
2024,02,23,09,37,104.00
2024,02,23,09,38,104.10
2024,02,23,09,39,107.30
2024,02,23,09,40,109.60
2024,02,23,09,41,111.80
2024,02,23,09,42,113.00
2024,02,23,09,43,111.60
2024,02,23,09,44,111.00
2024,02,23,09,45,113.80
2024,02,23,09,46,118.90
2024,02,23,09,47,124.40
2024,02,23,09,48,128.80
2024,02,23,09,49,131.10
2024,02,23,09,50,130.70
2024,02,23,09,51,128.40
2024,02,23,09,52,128.00
2024,02,23,09,53,128.00
2024,02,23,09,54,129.10
2024,02,23,09,55,132.00
2024,02,23,09,56,130.90
2024,02,23,09,57,128.60
2024,02,23,09,58,128.00
2024,02,23,09,59,127.10
2024,02,23,10,00,126.70
2024,02,23,10,01,125.00
2024,02,23,10,02,125.00
2024,02,23,10,03,126.70
2024,02,23,10,04,130.70
2024,02,23,10,05,132.00
2024,02,23,10,06,130.10
2024,02,23,10,07,130.00
2024,02,23,10,08,130.00
2024,02,23,10,09,131.70
2024,02,23,10,10,134.50
2024,02,23,10,11,136.30
2024,02,23,10,12,140.20
2024,02,23,10,13,143.90
2024,02,23,10,14,146.40
2024,02,23,10,15,149.60
2024,02,23,10,16,151.80
2024,02,23,10,17,154.70
2024,02,23,10,18,157.40
2024,02,23,10,19,155.60
2024,02,23,10,20,153.10
2024,02,23,10,21,151.30
2024,02,23,10,22,153.60
2024,02,23,10,23,158.00
2024,02,23,10,24,164.60
2024,02,23,10,25,167.00
2024,02,23,10,26,167.00
2024,02,23,10,27,170.80
2024,02,23,10,28,170.80
2024,02,23,10,29,162.10
2024,02,23,10,30,155.00
2024,02,23,10,31,158.90
2024,02,23,10,32,168.10
2024,02,23,10,33,175.00
2024,02,23,10,34,178.10
2024,02,23,10,35,181.90
2024,02,23,10,36,187.70
2024,02,23,10,37,192.40
2024,02,23,10,38,191.30
2024,02,23,10,39,190.00
2024,02,23,10,40,193.90
2024,02,23,10,41,201.40
2024,02,23,10,42,205.70
2024,02,23,10,43,202.90
2024,02,23,10,44,200.00
2024,02,23,10,45,199.40
2024,02,23,10,46,196.20
2024,02,23,10,47,192.60
2024,02,23,10,48,190.20
2024,02,23,10,49,190.00
2024,02,23,10,50,190.00
2024,02,23,10,51,191.30
2024,02,23,10,52,195.10
2024,02,23,10,53,199.00
2024,02,23,10,54,203.10
2024,02,23,10,55,206.80
2024,02,23,10,56,211.90
2024,02,23,10,57,216.00
2024,02,23,10,58,216.00
2024,02,23,10,59,214.30
2024,02,23,11,00,208.90
2024,02,23,11,01,203.00
2024,02,23,11,02,204.00
2024,02,23,11,03,209.30
2024,02,23,11,04,211.00
2024,02,23,11,05,211.00
2024,02,23,11,06,211.00
2024,02,23,11,07,209.70
2024,02,23,11,08,206.60
2024,02,23,11,09,202.30
2024,02,23,11,10,197.80
2024,02,23,11,11,190.80
2024,02,23,11,12,187.10
2024,02,23,11,13,187.10
2024,02,23,11,14,189.30
2024,02,23,11,15,188.40
2024,02,23,11,16,185.10
2024,02,23,11,17,180.70
2024,02,23,11,18,179.60
2024,02,23,11,19,181.80
2024,02,23,11,20,184.60
2024,02,23,11,21,187.30
2024,02,23,11,22,189.60
2024,02,23,11,23,194.90
2024,02,23,11,24,199.50
2024,02,23,11,25,203.20
2024,02,23,11,26,205.20
2024,02,23,11,27,204.00
2024,02,23,11,28,202.70
2024,02,23,11,29,199.60
2024,02,23,11,30,199.10
2024,02,23,11,31,202.70
2024,02,23,11,32,206.30
2024,02,23,11,33,207.00
2024,02,23,11,34,208.10
2024,02,23,11,35,207.70
2024,02,23,11,36,206.20
2024,02,23,11,37,203.90
2024,02,23,11,38,199.80
2024,02,23,11,39,199.00
2024,02,23,11,40,199.00
2024,02,23,11,41,197.90
2024,02,23,11,42,194.40
2024,02,23,11,43,192.20
2024,02,23,11,44,192.00
2024,02,23,11,45,191.70
2024,02,23,11,46,190.60
2024,02,23,11,47,193.20
2024,02,23,11,48,196.10
2024,02,23,11,49,199.00
2024,02,23,11,50,200.00
2024,02,23,11,51,199.90
2024,02,23,11,52,199.50
2024,02,23,11,53,203.10
2024,02,23,11,54,208.10
2024,02,23,11,55,213.80
2024,02,23,11,56,219.40
2024,02,23,11,57,224.10
2024,02,23,11,58,229.50
2024,02,23,11,59,230.00
2024,02,23,12,00,229.10
2024,02,23,12,01,224.50
2024,02,23,12,02,221.00
2024,02,23,12,03,220.30
2024,02,23,12,04,220.80
2024,02,23,12,05,228.70
2024,02,23,12,06,236.50
2024,02,23,12,07,239.00
2024,02,23,12,08,238.20
2024,02,23,12,09,237.00
2024,02,23,12,10,236.30
2024,02,23,12,11,234.40
2024,02,23,12,12,230.40
2024,02,23,12,13,228.70
2024,02,23,12,14,227.60
2024,02,23,12,15,230.30
2024,02,23,12,16,234.20
2024,02,23,12,17,236.00
2024,02,23,12,18,234.40
2024,02,23,12,19,232.00
2024,02,23,12,20,228.70
2024,02,23,12,21,227.00
2024,02,23,12,22,228.30
2024,02,23,12,23,232.10
2024,02,23,12,24,238.80
2024,02,23,12,25,248.40
2024,02,23,12,26,256.30
2024,02,23,12,27,257.80
2024,02,23,12,28,256.40
2024,02,23,12,29,255.00
2024,02,23,12,30,254.00
2024,02,23,12,31,251.70
2024,02,23,12,32,250.20
2024,02,23,12,33,250.00
2024,02,23,12,34,251.00
2024,02,23,12,35,251.00
2024,02,23,12,36,250.60
2024,02,23,12,37,246.70
2024,02,23,12,38,239.20
2024,02,23,12,39,232.90
2024,02,23,12,40,229.20
2024,02,23,12,41,227.00
2024,02,23,12,42,227.00
2024,02,23,12,43,226.20
2024,02,23,12,44,222.80
2024,02,23,12,45,220.30
2024,02,23,12,46,215.10
2024,02,23,12,47,209.30
2024,02,23,12,48,201.50
2024,02,23,12,49,198.40
2024,02,23,12,50,197.00
2024,02,23,12,51,198.00
2024,02,23,12,52,199.00
2024,02,23,12,53,197.40
2024,02,23,12,54,193.10
2024,02,23,12,55,190.00
2024,02,23,12,56,189.40
2024,02,23,12,57,188.80
2024,02,23,12,58,191.60
2024,02,23,12,59,193.00
2024,02,23,13,00,193.00
2024,02,23,13,01,191.90
2024,02,23,13,02,187.50
2024,02,23,13,03,185.00
2024,02,23,13,04,185.00
2024,02,23,13,05,186.60
2024,02,23,13,06,189.30
2024,02,23,13,07,191.60
2024,02,23,13,08,193.20
2024,02,23,13,09,197.70
2024,02,23,13,10,203.40
2024,02,23,13,11,207.80
2024,02,23,13,12,209.00
2024,02,23,13,13,210.40
2024,02,23,13,14,213.50
2024,02,23,13,15,217.50
2024,02,23,13,16,215.10
2024,02,23,13,17,209.90
2024,02,23,13,18,207.00
2024,02,23,13,19,207.00
2024,02,23,13,20,206.30
2024,02,23,13,21,201.20
2024,02,23,13,22,199.20
2024,02,23,13,23,202.30
2024,02,23,13,24,204.60
2024,02,23,13,25,206.00
2024,02,23,13,26,204.90
2024,02,23,13,27,202.60
2024,02,23,13,28,200.40
2024,02,23,13,29,200.10
2024,02,23,13,30,202.70
2024,02,23,13,31,208.00
2024,02,23,13,32,215.10
2024,02,23,13,33,218.00
2024,02,23,13,34,214.60
2024,02,23,13,35,208.20
2024,02,23,13,36,202.20
2024,02,23,13,37,200.00
2024,02,23,13,38,200.00
2024,02,23,13,39,200.00
2024,02,23,13,40,199.40
2024,02,23,13,41,199.70
2024,02,23,13,42,200.00
2024,02,23,13,43,198.90
2024,02,23,13,44,194.50
2024,02,23,13,45,190.80
2024,02,23,13,46,186.70
2024,02,23,13,47,182.90
2024,02,23,13,48,179.70
2024,02,23,13,49,179.00
2024,02,23,13,50,181.10
2024,02,23,13,51,185.50
2024,02,23,13,52,188.60
2024,02,23,13,53,190.80
2024,02,23,13,54,192.00
2024,02,23,13,55,190.70
2024,02,23,13,56,190.00
2024,02,23,13,57,190.20
2024,02,23,13,58,193.70
2024,02,23,13,59,198.40
2024,02,23,14,00,203.70
2024,02,23,14,01,210.00
2024,02,23,14,02,219.80
2024,02,23,14,03,231.70
2024,02,23,14,04,234.10
2024,02,23,14,05,236.50
2024,02,23,14,06,232.90
2024,02,23,14,07,228.80
2024,02,23,14,08,225.90
2024,02,23,14,09,226.40
2024,02,23,14,10,227.00
2024,02,23,14,11,227.10
2024,02,23,14,12,229.00
2024,02,23,14,13,230.00
2024,02,23,14,14,236.70
2024,02,23,14,15,249.20
2024,02,23,14,16,262.90
2024,02,23,14,17,271.00
2024,02,23,14,18,259.70
2024,02,23,14,19,242.60
2024,02,23,14,20,235.40
2024,02,23,14,21,233.20
2024,02,23,14,22,230.90
2024,02,23,14,23,232.70
2024,02,23,14,24,239.60
2024,02,23,14,25,245.80
2024,02,23,14,26,248.40
2024,02,23,14,27,250.90
2024,02,23,14,28,253.00
2024,02,23,14,29,255.10
2024,02,23,14,30,259.00
2024,02,23,14,31,261.60
2024,02,23,14,32,261.90
2024,02,23,14,33,255.90
2024,02,23,14,34,240.90
2024,02,23,14,35,222.70
2024,02,23,14,36,206.90
2024,02,23,14,37,202.00
2024,02,23,14,38,207.60
2024,02,23,14,39,209.10
2024,02,23,14,40,211.30
2024,02,23,14,41,214.60
2024,02,23,14,42,219.20
2024,02,23,14,43,219.40
2024,02,23,14,44,214.70
2024,02,23,14,45,211.40
2024,02,23,14,46,198.10
2024,02,23,14,47,186.00
2024,02,23,14,48,188.20
2024,02,23,14,49,203.70
2024,02,23,14,50,231.80
2024,02,23,14,51,253.30
2024,02,23,14,52,228.10
2024,02,23,14,53,248.30
2024,02,23,14,54,349.80
2024,02,23,14,55,361.90
2024,02,23,14,56,295.80
2024,02,23,14,57,297.00
2024,02,23,14,58,391.30
2024,02,23,14,59,439.40
2024,02,23,15,00,438.00
2024,02,23,15,01,434.40
2024,02,23,15,02,426.10
2024,02,23,15,03,421.50
2024,02,23,15,04,415.30
2024,02,23,15,05,414.30
2024,02,23,15,06,416.60
2024,02,23,15,07,411.60
2024,02,23,15,08,415.30
2024,02,23,15,09,416.40
2024,02,23,15,10,412.90
2024,02,23,15,11,409.00
2024,02,23,15,12,406.70
2024,02,23,15,13,403.60
2024,02,23,15,14,396.60
2024,02,23,15,15,394.10
2024,02,23,15,16,383.20
2024,02,23,15,17,385.00
2024,02,23,15,18,386.00
2024,02,23,15,19,391.30
2024,02,23,15,20,373.90
2024,02,23,15,21,387.50
2024,02,23,15,22,383.70
2024,02,23,15,23,379.30
2024,02,23,15,24,382.20
2024,02,23,15,25,371.20
2024,02,23,15,26,373.80
2024,02,23,15,27,374.40
2024,02,23,15,28,322.00
2024,02,23,15,29,374.70
2024,02,23,15,30,367.40
2024,02,23,15,31,357.10
2024,02,23,15,32,376.10
2024,02,23,15,33,364.20
2024,02,23,15,34,364.80
2024,02,23,15,35,344.60
2024,02,23,15,36,370.20
2024,02,23,15,37,367.90
2024,02,23,15,38,322.10
2024,02,23,15,39,278.90
2024,02,23,15,40,270.60
2024,02,23,15,41,241.20
2024,02,23,15,42,227.00
2024,02,23,15,43,234.00
2024,02,23,15,44,324.90
2024,02,23,15,45,342.20
2024,02,23,15,46,351.50
2024,02,23,15,47,355.20
2024,02,23,15,48,328.40
2024,02,23,15,49,288.70
2024,02,23,15,50,305.60
2024,02,23,15,51,326.40
2024,02,23,15,52,325.80
2024,02,23,15,53,324.90
2024,02,23,15,54,317.80
2024,02,23,15,55,315.00
2024,02,23,15,56,311.20
2024,02,23,15,57,307.00
2024,02,23,15,58,299.80
2024,02,23,15,59,291.50
2024,02,23,16,00,287.40
2024,02,23,16,01,287.00
2024,02,23,16,02,282.20
2024,02,23,16,03,279.00
2024,02,23,16,04,275.70
2024,02,23,16,05,272.40
2024,02,23,16,06,267.30
2024,02,23,16,07,264.40
2024,02,23,16,08,261.30
2024,02,23,16,09,257.60
2024,02,23,16,10,254.90
2024,02,23,16,11,250.80
2024,02,23,16,12,249.40
2024,02,23,16,13,247.20
2024,02,23,16,14,246.00
2024,02,23,16,15,244.70
2024,02,23,16,16,243.20
2024,02,23,16,17,241.10
2024,02,23,16,18,238.70
2024,02,23,16,19,236.70
2024,02,23,16,20,234.30
2024,02,23,16,21,228.20
2024,02,23,16,22,215.80
2024,02,23,16,23,202.30
2024,02,23,16,24,207.00
2024,02,23,16,25,220.90
2024,02,23,16,26,220.00
2024,02,23,16,27,218.30
2024,02,23,16,28,214.90
2024,02,23,16,29,212.00
2024,02,23,16,30,209.40
2024,02,23,16,31,206.10
2024,02,23,16,32,203.30
2024,02,23,16,33,199.20
2024,02,23,16,34,195.30
2024,02,23,16,35,192.50
2024,02,23,16,36,189.40
2024,02,23,16,37,185.60
2024,02,23,16,38,179.50
2024,02,23,16,39,175.70
2024,02,23,16,40,173.40
2024,02,23,16,41,170.80
2024,02,23,16,42,167.90
2024,02,23,16,43,167.00
2024,02,23,16,44,163.90
2024,02,23,16,45,162.00
2024,02,23,16,46,159.30
2024,02,23,16,47,155.70
2024,02,23,16,48,153.30
2024,02,23,16,49,149.90
2024,02,23,16,50,147.00
2024,02,23,16,51,142.80
2024,02,23,16,52,141.00
2024,02,23,16,53,138.70
2024,02,23,16,54,136.40
2024,02,23,16,55,134.60
2024,02,23,16,56,131.80
2024,02,23,16,57,128.60
2024,02,23,16,58,125.60
2024,02,23,16,59,123.00
2024,02,23,17,00,119.70
2024,02,23,17,01,117.40
2024,02,23,17,02,115.20
2024,02,23,17,03,113.40
2024,02,23,17,04,110.30
2024,02,23,17,05,107.40
2024,02,23,17,06,105.00
2024,02,23,17,07,101.70
2024,02,23,17,08,99.40
2024,02,23,17,09,96.70
2024,02,23,17,10,93.90
2024,02,23,17,11,91.60
2024,02,23,17,12,90.20
2024,02,23,17,13,88.00
2024,02,23,17,14,85.50
2024,02,23,17,15,82.40
2024,02,23,17,16,81.00
2024,02,23,17,17,79.90